GORIZONT 23 [-]

Last updated on Jan. 26, 2020, 4:40 a.m. UTC

1 21533U 91046A   20025.32729622 -.00000147  00000-0  00000-0 0  9999
2 21533  15.2983 359.8594 0009170 308.1626 225.8951  0.98907685 23593
UTC
Height (km)
Latitude
Longitude
Inclination
Orbital Period
UTC large
Height (km)
Speed (km/s)
/
Latitude / Longitude
Inclination (degrees)
Orbital Period (minutes)
Azimuth
Elevation
Range (km)
Doppler Factor
iOS Compass Heading
iOS Angle

Next 30 passes for location: Hong Kong

Rise time Rise Azimuth (degrees) Set time Set Azimuth (degrees) Duration Max altitude (degrees)

No matching passes for this satellites